Wind_Speed
15 14 14 14 15 15 15 15 15 15 16 16 17 17 17 18 17 17 18 18 18 17 17 18 19 19 18 18 18 17 16 16 15 14 13 13 12 12 11 11 10 9 8
14 14 14 15 14 16 16 16 16 17 17 17 17 18 18 18 18 18 18 19 20 19 19 19 19 21 22 20 20 20 19 19 18 17 16 15 14 14 13 13 12 11 10
11 12 12 13 14 15 16 16 17 16 17 18 18 19 19 19 20 20 20 20 20 20 20 20 21 21 22 23 22 22 22 21 21 20 19 18 17 16 15 15 14 13 12
10 11 13 13 14 15 15 16 17 18 18 18 19 20 20 21 22 21 21 21 21 21 21 20 21 22 22 24 24 24 23 23 23 23 22 21 20 19 18 17 16 15 14
11 12 13 13 14 15 15 16 18 19 19 19 19 20 21 22 23 23 23 23 22 23 23 23 23 24 23 24 25 26 25 25 26 26 25 24 23 22 21 20 19 18 17
11 12 13 14 15 16 16 17 18 20 20 21 21 22 23 23 24 24 25 25 25 24 24 24 24 25 25 25 27 27 27 27 27 28 28 27 26 25 24 23 22 21 19
11 12 13 14 15 16 17 18 19 21 22 22 22 23 24 24 25 26 26 27 27 27 26 26 26 27 26 27 28 29 29 28 29 30 30 30 29 28 27 26 25 24 22
11 12 13 14 15 16 17 18 19 20 21 22 23 23 24 25 26 26 27 27 28 28 28 28 28 29 28 28 29 30 31 30 30 30 31 32 31 30 29 29 27 26 25
11 12 14 15 16 17 17 18 19 20 21 22 23 24 25 26 26 27 28 28 28 29 29 30 30 30 30 29 30 31 32 33 33 33 33 33 33 33 32 31 31 29 28
13 14 15 16 17 17 18 19 20 20 21 22 23 23 24 25 26 27 28 29 29 30 30 30 31 31 31 31 31 32 33 33 34 35 35 35 35 35 35 34 34 33 31
14 15 16 17 18 19 20 20 21 22 22 23 23 24 24 25 26 27 28 28 29 30 31 32 32 33 32 33 33 33 33 33 34 35 36 36 36 37 36 36 36 35 34
15 16 18 19 20 21 22 23 23 23 23 24 25 25 26 26 26 27 28 29 29 30 31 32 33 34 34 34 35 36 36 35 35 36 36 37 37 37 37 38 37 37 36
17 18 20 21 22 23 24 24 25 25 25 26 26 27 27 28 28 28 28 29 30 31 32 33 33 35 36 36 37 37 38 38 38 38 37 38 38 38 39 39 39 37 37
19 21 22 23 24 24 25 25 26 27 27 28 29 29 30 30 30 30 30 31 31 32 33 34 34 35 36 37 38 39 39 39 40 40 39 39 39 40 40 39 40 39 38
21 23 24 25 25 26 26 27 28 28 28 29 30 31 31 32 32 32 32 33 33 33 34 35 36 36 36 37 39 39 40 40 41 41 41 40 41 41 41 41 41 40 40
23 25 26 27 27 28 29 29 30 30 30 31 31 31 32 33 33 34 34 35 35 35 35 37 38 38 38 38 39 40 41 41 42 42 42 42 42 42 43 43 43 42 41
25 27 28 29 30 30 31 32 32 32 32 32 32 32 33 33 34 35 35 36 37 37 36 37 39 39 39 39 40 41 41 42 43 42 43 43 43 43 43 43 43 43 43
26 28 30 31 32 33 33 34 34 34 34 34 34 34 34 34 34 35 35 36 37 38 38 38 40 41 41 41 41 41 42 43 42 43 43 43 43 43 43 44 44 44 44
28 30 31 33 34 34 35 35 35 35 35 35 35 35 35 34 34 34 35 35 36 37 38 38 39 41 42 43 43 43 43 43 44 44 44 44 43 43 44 45 45 45 45
30 32 33 34 35 36 37 37 37 36 36 36 36 35 34 34 33 33 34 34 35 35 36 37 37 40 41 43 44 44 44 45 45 45 45 45 44 44 44 44 45 45 46
32 33 35 36 37 38 38 38 38 37 37 36 36 35 34 33 33 33 33 33 34 34 35 36 37 38 39 41 43 44 45 45 46 46 46 46 45 45 45 45 46 45 45
33 35 36 38 39 40 40 40 39 39 37 36 35 34 33 33 33 33 33 33 33 33 34 35 36 37 38 40 41 42 44 45 46 47 47 47 47 46 46 46 46 46 46
34 36 38 39 40 41 41 41 40 39 37 36 35 34 33 33 33 33 32 32 33 33 33 34 35 36 38 40 41 42 43 44 45 47 47 47 47 46 46 46 47 47 47
36 37 39 40 42 42 42 41 40 39 37 36 35 34 33 33 33 33 32 32 33 33 33 33 34 35 37 39 41 42 43 43 44 46 47 47 48 48 47 46 47 48 48
38 39 40 42 42 43 42 41 40 38 37 36 35 34 34 33 33 33 32 32 32 33 33 33 33 34 36 38 40 41 42 43 44 46 47 47 48 49 48 47 47 48 49
39 40 41 42 43 43 42 41 40 38 37 36 35 35 34 34 33 33 32 32 32 32 33 33 33 34 35 37 39 40 41 43 43 45 47 47 47 48 48 48 47 48 49
Wind_Direction
286 285 282 276 273 273 275 276 274 273 270 269 268 267 268 268 264 258 254 251 249 250 249 248 243 238 235 234 232 229 226 224 222 220 220 219 219 217 214 213 213 214 215
286 282 279 279 277 275 273 273 274 274 268 267 265 263 266 267 264 259 255 253 251 252 253 250 243 239 236 234 233 231 229 227 225 223 222 222 222 222 221 219 218 218 219
291 284 282 284 279 274 271 271 274 274 272 269 267 265 264 264 266 262 257 253 251 251 253 251 244 239 237 236 234 232 231 229 227 226 224 224 223 224 225 224 224 223 223
296 291 288 287 282 278 274 272 272 273 272 270 268 267 266 267 267 263 258 254 253 251 252 251 244 240 239 237 235 233 232 231 229 228 227 227 226 226 226 226 226 226 226
298 294 292 290 287 284 280 275 274 274 273 273 271 269 267 267 267 262 258 257 255 254 252 250 245 242 241 239 237 235 234 234 232 230 228 228 228 228 227 227 228 228 228
301 299 295 290 289 287 284 280 278 276 274 273 272 270 268 267 265 262 258 256 256 255 253 251 248 245 243 241 239 237 236 236 235 233 231 229 229 230 229 229 229 230 230
307 304 299 296 294 291 288 284 281 278 275 274 272 271 269 267 265 264 260 258 256 256 254 252 250 247 246 243 241 239 237 238 237 235 233 231 231 231 231 230 230 231 230
310 308 307 305 303 300 295 291 287 284 280 277 275 273 271 269 267 265 262 259 257 256 255 254 252 249 248 246 243 241 238 238 237 236 235 234 233 232 231 230 230 230 230
320 317 313 311 309 307 303 298 294 289 286 282 279 275 272 270 268 266 263 260 258 255 254 253 251 249 247 246 244 242 241 240 237 236 235 235 233 232 232 231 231 230 230
329 324 320 318 316 312 308 304 300 295 291 288 284 280 276 272 269 267 265 262 260 257 255 253 250 248 247 247 245 243 242 241 239 237 235 235 234 233 232 232 232 231 230
333 328 324 321 318 315 312 308 303 298 295 292 288 284 280 276 272 269 267 264 261 258 256 253 251 248 246 246 244 242 242 241 239 237 235 234 234 233 232 232 231 232 232
336 332 328 324 320 317 314 310 306 302 298 294 290 287 284 280 276 271 268 266 263 260 257 255 252 249 247 245 244 242 241 241 239 237 236 234 233 233 233 233 232 232 232
337 334 331 326 322 318 314 311 308 304 300 295 291 288 285 282 278 273 269 266 264 262 259 256 254 251 248 245 244 243 242 240 239 238 237 235 234 234 233 234 233 233 232
338 335 332 329 325 322 318 314 311 306 302 298 293 290 286 282 279 274 270 266 263 262 260 258 255 252 249 247 244 243 241 239 239 239 237 237 236 234 232 233 232 233 232
337 335 333 330 327 324 321 318 314 310 305 301 296 292 288 283 280 276 272 268 264 261 260 259 257 253 250 247 245 243 241 239 238 238 237 237 235 233 233 231 231 232 231
334 333 332 331 328 325 322 319 317 313 308 304 300 295 290 285 281 277 274 270 266 262 259 258 257 255 252 249 246 243 242 240 238 238 237 236 235 234 232 232 232 231 230
331 331 331 329 327 326 323 320 318 315 311 306 303 298 293 288 283 279 275 272 268 264 260 257 256 254 252 249 247 244 242 241 239 237 236 235 234 234 233 232 232 230 229
329 330 330 328 326 325 323 322 319 316 312 308 304 299 295 290 286 282 278 274 270 266 261 257 254 253 251 250 248 245 242 240 239 237 236 235 234 233 232 231 230 230 229
326 327 328 328 326 325 323 322 320 317 314 310 305 301 296 292 288 284 281 277 273 269 264 259 255 253 251 250 248 246 243 240 238 236 236 236 234 233 232 231 231 229 228
323 324 325 326 325 324 323 321 320 318 315 311 307 303 298 294 290 287 283 280 275 271 266 261 257 254 251 249 247 245 243 240 238 236 235 235 234 233 232 231 230 229 228
321 322 323 324 324 324 323 322 320 318 315 312 308 304 300 295 292 289 286 282 278 273 267 263 259 255 251 249 246 244 241 240 238 237 236 234 233 232 231 230 229 229 228
320 321 321 322 324 324 323 322 320 318 315 312 308 305 301 297 294 291 288 284 280 276 270 265 260 255 251 249 247 245 242 239 238 237 235 233 233 232 231 230 228 228 227
319 320 321 322 323 323 323 322 320 318 315 312 309 306 303 299 296 293 290 286 282 277 272 267 262 257 253 250 248 246 243 240 237 236 235 233 231 231 231 230 228 228 226
317 319 321 322 322 322 322 321 320 318 315 312 308 306 304 301 297 294 291 287 283 279 274 270 264 259 256 251 248 246 244 240 237 236 234 232 231 230 229 229 228 227 226
316 318 319 321 321 321 321 320 319 317 315 312 308 306 304 302 299 296 292 289 285 280 275 271 266 261 257 253 249 246 243 241 237 236 234 232 230 229 228 228 228 227 225
314 316 318 320 320 320 320 319 318 316 314 311 309 306 304 303 301 299 295 290 285 281 277 273 268 262 258 254 251 247 244 240 237 235 234 232 230 229 228 227 226 226 225
Height
5881 5880 5880 5880 5879 5879 5880 5880 5880 5879 5879 5879 5879 5880 5880 5881 5882 5882 5883 5884 5885 5886 5887 5888 5890 5891 5893 5895 5897 5899 5901 5903 5905 5907 5908 5910 5912 5913 5915 5916 5917 5919 5920
5877 5877 5876 5876 5876 5876 5876 5876 5876 5876 5876 5875 5876 5876 5876 5877 5877 5878 5879 5880 5880 5882 5883 5884 5885 5887 5889 5891 5893 5895 5897 5899 5901 5904 5906 5908 5910 5911 5913 5915 5916 5917 5919
5874 5873 5873 5873 5872 5872 5872 5872 5872 5872 5872 5872 5872 5872 5872 5872 5873 5874 5874 5875 5876 5877 5878 5879 5880 5882 5884 5886 5888 5891 5893 5895 5898 5900 5902 5904 5907 5909 5911 5913 5914 5916 5917
5871 5870 5870 5869 5869 5868 5868 5868 5868 5868 5868 5868 5868 5867 5867 5868 5868 5868 5869 5870 5871 5872 5873 5874 5875 5877 5879 5881 5883 5886 5888 5891 5893 5896 5898 5901 5903 5905 5907 5910 5912 5913 5915
5868 5868 5867 5866 5865 5865 5864 5864 5864 5864 5863 5863 5863 5862 5862 5862 5863 5863 5864 5865 5866 5867 5868 5869 5870 5872 5873 5875 5878 5880 5883 5885 5888 5891 5894 5896 5899 5901 5904 5906 5908 5911 5913
5865 5865 5864 5863 5862 5861 5861 5860 5859 5859 5858 5858 5858 5857 5857 5857 5857 5857 5858 5859 5860 5861 5862 5863 5865 5866 5868 5869 5872 5874 5877 5880 5882 5885 5888 5891 5894 5896 5899 5902 5904 5907 5909
5863 5862 5861 5860 5858 5857 5856 5856 5855 5854 5853 5853 5852 5852 5852 5851 5851 5851 5851 5852 5853 5854 5855 5857 5859 5860 5862 5863 5865 5868 5871 5873 5876 5879 5882 5885 5888 5891 5894 5897 5900 5903 5905
5860 5858 5857 5856 5855 5853 5852 5851 5850 5848 5847 5847 5846 5846 5845 5846 5845 5845 5845 5845 5846 5847 5848 5850 5851 5853 5855 5857 5859 5861 5864 5867 5869 5872 5875 5879 5882 5885 5888 5891 5895 5898 5901
5856 5855 5854 5852 5851 5849 5848 5846 5844 5843 5842 5841 5840 5840 5839 5838 5838 5838 5837 5838 5838 5839 5840 5842 5843 5845 5847 5850 5852 5854 5857 5859 5862 5865 5868 5871 5875 5878 5882 5885 5889 5892 5895
5854 5852 5851 5849 5847 5845 5843 5841 5839 5838 5836 5834 5833 5832 5832 5831 5830 5830 5830 5830 5831 5832 5833 5834 5836 5837 5839 5842 5844 5846 5849 5851 5854 5857 5860 5864 5867 5871 5875 5878 5882 5886 5889
5851 5849 5847 5845 5843 5841 5838 5836 5834 5832 5830 5829 5827 5825 5825 5824 5823 5823 5822 5823 5823 5823 5824 5826 5827 5829 5831 5833 5835 5838 5840 5843 5846 5849 5852 5856 5860 5863 5867 5871 5875 5879 5883
5849 5846 5844 5841 5839 5836 5833 5831 5829 5826 5824 5822 5820 5819 5817 5816 5815 5815 5814 5814 5814 5815 5816 5817 5818 5820 5822 5824 5826 5829 5831 5835 5838 5841 5844 5848 5851 5855 5859 5863 5867 5871 5876
5845 5843 5840 5837 5834 5831 5828 5825 5822 5820 5818 5815 5813 5811 5809 5808 5807 5806 5806 5806 5806 5806 5807 5808 5809 5811 5812 5815 5817 5820 5823 5826 5829 5832 5836 5839 5843 5847 5851 5855 5859 5863 5868
5842 5839 5836 5832 5829 5826 5822 5819 5816 5813 5810 5808 5805 5803 5801 5799 5798 5797 5797 5797 5797 5797 5797 5798 5799 5801 5802 5805 5807 5810 5813 5816 5820 5823 5826 5830 5834 5838 5842 5846 5851 5855 5860
5838 5834 5831 5827 5824 5820 5816 5813 5809 5806 5802 5799 5796 5794 5792 5790 5788 5787 5787 5787 5788 5788 5788 5788 5789 5790 5792 5795 5797 5800 5803 5806 5809 5813 5817 5821 5825 5829 5833 5837 5842 5846 5851
5833 5830 5826 5822 5818 5814 5810 5806 5802 5798 5794 5790 5787 5784 5782 5780 5778 5777 5776 5776 5776 5777 5778 5778 5778 5779 5782 5784 5786 5789 5792 5795 5799 5802 5806 5810 5815 5819 5823 5828 5832 5837 5842
5829 5825 5821 5817 5812 5808 5803 5799 5794 5790 5786 5782 5778 5775 5772 5769 5767 5765 5764 5764 5764 5765 5766 5767 5767 5768 5770 5772 5775 5778 5781 5784 5788 5792 5796 5800 5804 5809 5813 5818 5823 5828 5833
5824 5820 5816 5811 5806 5801 5796 5791 5787 5782 5777 5773 5769 5765 5762 5759 5756 5754 5753 5752 5751 5751 5753 5755 5755 5756 5758 5760 5763 5766 5770 5773 5777 5781 5785 5789 5793 5798 5803 5808 5813 5818 5824
5819 5815 5810 5805 5800 5795 5789 5784 5778 5773 5768 5763 5759 5755 5751 5748 5745 5743 5741 5740 5739 5739 5739 5741 5742 5743 5745 5747 5750 5754 5757 5761 5765 5769 5773 5778 5782 5787 5792 5797 5803 5808 5814
5813 5809 5804 5799 5793 5788 5782 5776 5770 5765 5759 5754 5749 5745 5741 5737 5735 5732 5730 5728 5727 5727 5727 5728 5729 5730 5732 5734 5737 5741 5745 5749 5753 5757 5762 5766 5771 5776 5781 5786 5792 5798 5804
5807 5802 5797 5792 5786 5780 5774 5768 5762 5756 5750 5744 5739 5735 5731 5727 5724 5722 5720 5718 5716 5715 5715 5715 5716 5717 5719 5721 5724 5727 5731 5736 5740 5745 5750 5755 5760 5765 5770 5775 5781 5787 5793
5800 5795 5790 5784 5778 5772 5766 5759 5753 5747 5741 5735 5730 5726 5722 5718 5715 5712 5709 5707 5705 5704 5703 5703 5704 5705 5706 5708 5711 5714 5718 5723 5729 5733 5737 5743 5748 5754 5759 5764 5770 5776 5782
5793 5788 5782 5776 5770 5764 5757 5751 5744 5738 5732 5726 5721 5717 5712 5708 5705 5702 5699 5696 5694 5692 5692 5692 5692 5693 5694 5696 5699 5702 5705 5710 5715 5719 5724 5731 5736 5742 5747 5753 5759 5765 5771
5785 5780 5774 5768 5762 5755 5749 5742 5736 5729 5723 5717 5712 5708 5703 5699 5695 5692 5689 5686 5684 5682 5680 5680 5681 5681 5682 5683 5686 5689 5692 5697 5702 5706 5711 5718 5723 5729 5735 5741 5747 5753 5760
5777 5772 5766 5760 5753 5747 5740 5733 5727 5720 5714 5709 5703 5699 5694 5690 5686 5682 5679 5676 5673 5671 5669 5669 5669 5669 5670 5671 5673 5676 5680 5684 5689 5693 5698 5705 5711 5716 5723 5729 5735 5741 5748
5768 5763 5757 5751 5744 5738 5731 5724 5718 5712 5706 5700 5694 5689 5685 5681 5676 5672 5668 5665 5663 5660 5659 5658 5657 5657 5658 5659 5660 5663 5667 5671 5676 5681 5685 5692 5698 5703 5711 5717 5724 5730 5736